TimeCDT,TemperatureF,Dew PointF,Humidity,Sea Level PressureIn,VisibilityMPH,Wind Direction,Wind SpeedMPH,Gust SpeedMPH,PrecipitationIn,Events,Conditions,WindDirDegrees,DateUTC
12:53 AM,73.0,64.9,76,30.07,10.0,SSW,3.5,-,N/A,,Clear,200,2013-06-23 05:53:00
1:53 AM,72.0,66.0,81,30.05,9.0,Calm,Calm,-,N/A,,Clear,0,2013-06-23 06:53:00
2:53 AM,71.1,64.9,81,30.04,10.0,Calm,Calm,-,N/A,,Clear,0,2013-06-23 07:53:00
3:53 AM,70.0,64.9,84,30.04,10.0,Calm,Calm,-,N/A,,Clear,0,2013-06-23 08:53:00
4:53 AM,66.9,64.0,90,30.05,9.0,NE,3.5,-,N/A,,Clear,50,2013-06-23 09:53:00
5:53 AM,66.9,64.0,90,30.07,8.0,Calm,Calm,-,N/A,,Clear,0,2013-06-23 10:53:00
6:53 AM,72.0,64.9,78,30.09,10.0,South,3.5,-,N/A,,Clear,170,2013-06-23 11:53:00
7:53 AM,75.9,66.0,71,30.11,10.0,South,4.6,-,N/A,,Clear,190,2013-06-23 12:53:00
8:53 AM,80.1,66.9,64,30.12,10.0,SSW,5.8,-,N/A,,Clear,210,2013-06-23 13:53:00
9:53 AM,84.0,69.1,61,30.12,10.0,Variable,5.8,-,N/A,,Clear,0,2013-06-23 14:53:00
10:53 AM,86.0,68.0,55,30.12,10.0,South,5.8,-,N/A,,Partly Cloudy,170,2013-06-23 15:53:00
11:53 AM,89.1,66.0,46,30.10,10.0,SSW,4.6,-,N/A,,Partly Cloudy,210,2013-06-23 16:53:00
12:53 PM,90.0,66.0,45,30.08,10.0,South,5.8,-,N/A,,Clear,170,2013-06-23 17:53:00
1:00 PM,-9999,-9999,N/A,-9999,-9999.0,North,-9999.0,-,N/A,,Unknown,0,2013-06-23 18:00:00
1:53 PM,88.0,64.0,45,30.06,10.0,South,6.9,-,N/A,,Partly Cloudy,170,2013-06-23 18:53:00
2:53 PM,90.0,64.9,43,30.05,10.0,South,5.8,-,N/A,,Mostly Cloudy,190,2013-06-23 19:53:00
3:53 PM,90.0,64.0,42,30.04,10.0,South,9.2,-,N/A,,Scattered Clouds,180,2013-06-23 20:53:00
4:53 PM,90.0,64.9,43,30.02,10.0,South,6.9,-,N/A,,Mostly Cloudy,170,2013-06-23 21:53:00
5:53 PM,88.0,66.9,49,30.03,10.0,South,5.8,-,N/A,,Scattered Clouds,190,2013-06-23 22:53:00
6:53 PM,88.0,66.9,49,30.03,10.0,SSE,6.9,-,N/A,,Mostly Cloudy,160,2013-06-23 23:53:00
7:53 PM,84.0,69.1,61,30.04,10.0,South,5.8,-,N/A,,Scattered Clouds,190,2013-06-24 00:53:00
8:53 PM,82.9,68.0,60,30.05,10.0,South,3.5,-,N/A,,Clear,180,2013-06-24 01:53:00
9:53 PM,80.1,69.1,69,30.07,10.0,South,3.5,-,N/A,,Clear,180,2013-06-24 02:53:00
10:53 PM,77.0,70.0,79,30.09,10.0,SSW,4.6,-,N/A,,Clear,200,2013-06-24 03:53:00
11:53 PM,75.9,70.0,82,30.09,10.0,SSW,5.8,-,N/A,,Clear,210,2013-06-24 04:53:00